Home   Weather   Loma Linda   Past weeks
Flag for USA

Past Weather in Loma Linda, California, USA — Yesterday and Last 2 Weeks

Now
100 °F

Sunny.


Feels Like: 97 °F
Forecast: 98 / 66 °F
Wind: 13 mph from West

Location: Norton Air Force Base / San Bern

Current Time: Jul 15, 2019 at 6:04:15 pm

Latest Report: Jul 15, 2019 at 4:50 pm


Visibility: 7 mi

Pressure: 29.85 "Hg

Humidity: 17%

Dew Point: 48 °F

Location of Loma LindaLocation

Past Weather in Loma Linda — Graph

°F

Loma Linda Temperature Yesterday

Maximum temperature yesterday: 102 °F (at 1:48 pm)
Minimum temperature yesterday: 64 °F (at 5:19 am)
Average temperature yesterday: 79 °F

High & Low Weather Summary for the Past Weeks

 TemperatureHumidityPressure
High102 °F (Jul 12, 1:50 pm)83% (Jul 6, 6:50 am)30.07 "Hg (Jul 6, 6:50 am)
Low62 °F (Jul 5, 5:20 am)11% (Jul 15, 1:50 pm)29.77 "Hg (Jul 12, 5:50 pm)
Average75 °F51%29.95 "Hg
* Reported Jun 30 4:50 pm — Jul 15 4:50 pm, Loma Linda. Weather by CustomWeather, © 2019

Note: Actual official high and low records may vary slightly from our data, if they occured in-between our weather recording intervals... More about our weather records

Advertising

Loma Linda Weather History for the Previous 24 Hours

Scroll right to see more
 ConditionsComfort  
Time TempWeatherWind HumidityBarometerVisibility
4:50 pm
Mon, Jul 15
100 °FSunny.13 mph17%29.85 "Hg7 mi
3:50 pm102 °FSunny.12 mph14%29.86 "Hg7 mi
2:50 pm102 °FSunny.9 mph12%29.87 "Hg7 mi
1:50 pm102 °FSunny.8 mph11%29.89 "Hg10 mi
12:50 pm100 °FSunny.9 mph15%29.91 "Hg10 mi
11:50 am95 °FSunny.No wind19%29.92 "Hg7 mi
10:50 am91 °FSunny.No wind21%29.94 "Hg7 mi
9:46 am86 °FSunny.No wind29%29.95 "Hg10 mi
8:45 am81 °FSunny.No wind37%29.96 "Hg10 mi
7:45 am68 °FSunny.No wind60%29.95 "Hg10 mi
7:00 am68 °FSunny.No wind60%29.95 "Hg10 mi
5:40 am68 °FClear.No wind61%29.94 "Hg10 mi
5:20 am67 °FClear.No wind62%29.94 "Hg10 mi
5:02 am69 °FClear.No wind60%29.93 "Hg10 mi
4:20 am67 °FClear.No wind62%29.94 "Hg10 mi
4:00 am69 °FClear.No wind60%29.94 "Hg10 mi
3:40 am69 °FClear.No wind62%29.94 "Hg10 mi
3:22 am69 °FClear.No wind62%29.94 "Hg10 mi
3:04 am70 °FClear.No wind59%29.94 "Hg10 mi
2:40 am72 °FClear.No wind57%29.94 "Hg10 mi
2:20 am72 °FClear.No wind55%29.95 "Hg10 mi
2:00 am73 °FClear.No wind54%29.95 "Hg10 mi
1:22 am74 °FClear.No wind54%29.96 "Hg10 mi
1:01 am75 °FClear.No wind53%29.97 "Hg10 mi
12:21 am75 °FClear.3 mph54%29.97 "Hg10 mi
12:02 am75 °FClear.3 mph56%29.97 "Hg10 mi
11:20 pm
Sun, Jul 14
76 °FClear.5 mph54%29.99 "Hg10 mi
11:00 pm78 °FClear.3 mph51%29.98 "Hg10 mi
10:41 pm77 °FClear.6 mph51%29.99 "Hg10 mi
10:23 pm79 °FClear.7 mph44%29.99 "Hg10 mi
10:04 pm80 °FClear.5 mph42%29.98 "Hg10 mi
9:40 pm80 °FClear.3 mph44%29.98 "Hg10 mi
8:50 pm82 °FClear.9 mph42%29.96 "Hg7 mi
7:50 pm88 °FSunny.13 mph35%29.94 "Hg7 mi
6:50 pm93 °FSunny.14 mph26%29.92 "Hg7 mi
Weather by CustomWeather, © 2019

See weather overview

LIVE PARTIAL LUNAR ECLIPSE – Watch the eclipse as it happens